This demonstration page uses our WeatherBlox Daily Observations layout. Learn more.

Left ArrowRight Arrow

Hourly Observations for September 27, 2022

Temp ( °F °C ) Dew Point ( °F °C ) Humidity (%) Winds ( mph kmh ) Pressure ( in mb ) Visibility ( mi km ) Precip ( " mm )
12:15 am 00:15 Clear 53 11.7 44 6.7 71 71 S 8 13 30.11 1020 10 16 0.00 0.00
12:35 am 00:35 Clear 53 11.7 44 6.5 70 70 S 8 13 30.12 1020 10 16 0.00 0.00
12:55 am 00:55 Clear 53 11.5 44 6.6 72 72 S 7 11 30.11 1020 10 16 0.00 0.00
1:15 am 01:15 Clear 54 12 43 6.2 68 68 SSW 5 7 30.12 1020 10 16 0.00 0.00
1:35 am 01:35 Clear 55 12.5 43 6 65 65 SSW 3 6 30.11 1020 10 16 0.00 0.00
1:55 am 01:55 Clear 55 12.6 42 5.8 63 63 Calm 30.11 1020 10 16 0.00 0.00
2:15 am 02:15 Clear 56 13.1 42 5.7 61 61 Calm 30.11 1019 10 16 0.00 0.00
2:35 am 02:35 Clear 54 12.3 42 5.8 64 64 Calm 30.11 1020 10 16 0.00 0.00
2:55 am 02:55 Clear 54 12.1 43 5.9 66 66 SW 3 6 30.11 1020 10 16 0.00 0.00
3:15 am 03:15 Clear 52 11.1 44 6.7 74 74 W 3 6 30.12 1020 10 16 0.00 0.00
3:35 am 03:35 Clear 52 11.3 43 6.2 71 71 WSW 3 6 30.11 1020 10 16 0.00 0.00
3:55 am 03:55 Clear 51 10.7 44 6.4 75 75 WSW 3 6 30.12 1020 10 16 0.00 0.00
4:15 am 04:15 Clear 53 11.4 43 6.1 70 70 Calm 30.11 1020 10 16 0.00 0.00
4:35 am 04:35 Clear 52 11.3 43 6 70 70 WNW 3 6 30.11 1020 10 16 0.00 0.00
4:55 am 04:55 Clear 51 10.4 43 6.1 75 75 WNW 5 7 30.12 1020 10 16 0.00 0.00
5:15 am 05:15 Clear 50 10.1 43 6.1 76 76 WNW 3 6 30.12 1020 10 16 0.00 0.00
5:35 am 05:35 Clear 50 10.2 43 6.1 76 76 WNW 3 6 30.12 1020 10 16 0.00 0.00
5:55 am 05:55 Clear 51 10.5 43 6 74 74 W 3 6 30.12 1020 10 16 0.00 0.00
6:15 am 06:15 Clear 49 9.6 43 6.1 79 79 W 3 6 30.13 1020 10 16 0.00 0.00
6:35 am 06:35 Clear 48 9.1 43 6.1 81 81 Calm 30.13 1020 10 16 0.00 0.00
6:55 am 06:55 Clear 49 9.3 43 6 80 80 Calm 30.13 1020 10 16 0.00 0.00
7:15 am 07:15 Clear 48 8.9 43 6.1 83 83 Calm 30.14 1021 10 16 0.00 0.00
7:35 am 07:35 Sunny 47 8.5 43 6 84 84 W 3 6 30.15 1021 10 16 0.00 0.00
7:55 am 07:55 Sunny 49 9.5 43 6.3 80 80 WNW 3 6 30.14 1021 10 16 0.00 0.00
8:15 am 08:15 Sunny 52 11 44 6.9 76 76 WNW 6 9 30.13 1020 10 16 0.00 0.00
8:35 am 08:35 Sunny 54 12.2 46 7.5 73 73 NW 7 11 30.12 1020 10 16 0.00 0.00
8:55 am 08:55 Sunny 56 13.3 47 8.1 71 71 NW 7 11 30.12 1020 10 16 0.00 0.00
9:15 am 09:15 Sunny 57 14 47 8.5 69 69 NNW 7 11 30.12 1020 10 16 0.00 0.00
9:35 am 09:35 Sunny 59 15 47 8.5 65 65 NNW 12 19 30.12 1020 10 16 0.00 0.00
9:55 am 09:55 Sunny 61 16.1 46 7.9 58 58 N 12 19 30.12 1020 10 16 0.00 0.00
10:15 am 10:15 Sunny 63 17 45 7.4 53 53 N 12 19 30.11 1020 10 16 0.00 0.00
10:35 am 10:35 Sunny 64 18 46 7.7 51 51 N 12 19 30.10 1019 10 16 0.00 0.00
10:55 am 10:55 Sunny 66 18.7 46 7.6 48 48 N 10 17 30.11 1020 10 16 0.00 0.00
11:15 am 11:15 Sunny 68 20.1 43 6.2 40 40 N 12 19 30.10 1019 10 16 0.00 0.00
11:35 am 11:35 Sunny 70 21.1 43 6.2 38 38 N 14 22 30.09 1019 10 16 0.00 0.00
11:55 am 11:55 Sunny 72 22.3 44 6.6 36 36 N 12 19 30.08 1019 10 16 0.00 0.00
12:15 pm 12:15 Sunny 73 22.8 44 6.4 35 35 N 12 19 30.07 1018 10 16 0.00 0.00
12:35 pm 12:35 Sunny 74 23.5 44 6.4 33 33 N 10 17 30.07 1018 10 16 0.00 0.00
12:55 pm 12:55 Sunny 76 24.5 44 6.4 31 31 N 10 17 30.06 1018 10 16 0.00 0.00
1:15 pm 13:15 Sunny 76 24.5 42 5.4 29 29 NNE 10 17 30.06 1018 10 16 0.00 0.00
1:35 pm 13:35 Sunny 77 24.8 42 5.5 29 29 NNE 10 17 30.05 1018 10 16 0.00 0.00
1:55 pm 13:55 Sunny 78 25.5 43 6.3 29 29 NNE 10 17 30.04 1017 10 16 0.00 0.00
2:15 pm 14:15 Sunny 78 25.3 41 5 27 27 NNE 9 15 30.04 1017 10 16 0.00 0.00
2:35 pm 14:35 Sunny 79 26 42 5.4 27 27 ENE 9 15 30.04 1017 10 16 0.00 0.00
2:55 pm 14:55 Sunny 79 26.1 42 5.8 27 27 ENE 8 13 30.03 1017 10 16 0.00 0.00
3:15 pm 15:15 Sunny 78 25.8 42 5.3 27 27 NE 9 15 30.03 1017 10 16 0.00 0.00
3:35 pm 15:35 Sunny 79 26.1 42 5.6 27 27 NNE 6 9 30.03 1017 10 16 0.00 0.00
3:55 pm 15:55 Sunny 79 26.2 42 5.5 27 27 N 8 13 30.03 1017 10 16 0.00 0.00
4:15 pm 16:15 Sunny 79 26.1 41 4.8 25 25 ENE 6 9 30.03 1017 10 16 0.00 0.00
4:35 pm 16:35 Sunny 79 26.1 43 6.2 28 28 ENE 13 20 30.03 1017 10 16 0.00 0.00
4:55 pm 16:55 Sunny 77 25.1 44 6.4 30 30 NE 10 17 30.05 1017 10 16 0.00 0.00
5:15 pm 17:15 Sunny 78 25.4 43 6.1 29 29 NE 9 15 30.04 1017 10 16 0.00 0.00
5:35 pm 17:35 Sunny 77 25.2 42 5.8 29 29 NE 12 19 30.05 1017 10 16 0.00 0.00
5:55 pm 17:55 Sunny 77 25 43 6.2 30 30 ENE 13 20 30.06 1018 10 16 0.00 0.00
6:15 pm 18:15 Sunny 76 24.3 44 6.4 32 32 NE 13 20 30.06 1018 10 16 0.00 0.00
6:35 pm 18:35 Sunny 74 23.6 44 6.6 33 33 NE 8 13 30.08 1018 10 16 0.00 0.00
6:55 pm 18:55 Sunny 72 22.2 45 7.2 38 38 NE 7 11 30.09 1019 10 16 0.00 0.00
7:15 pm 19:15 Sunny 69 20.4 46 7.5 43 43 NE 8 13 30.11 1020 10 16 0.00 0.00
7:35 pm 19:35 Clear 66 18.7 46 7.8 49 49 NE 8 13 30.13 1020 10 16 0.00 0.00
7:55 pm 19:55 Clear 64 17.7 46 7.7 52 52 NE 9 15 30.15 1021 10 16 0.00 0.00
8:15 pm 20:15 Clear 64 17.5 45 7.4 51 51 NE 9 15 30.16 1021 10 16 0.00 0.00
8:35 pm 20:35 Clear 63 17.1 45 7.2 52 52 NE 9 15 30.17 1022 10 16 0.00 0.00
8:55 pm 20:55 Clear 61 16.1 45 7.1 55 55 NE 9 15 30.19 1022 10 16 0.00 0.00
9:15 pm 21:15 Clear 61 16.1 44 6.8 54 54 NE 9 15 30.20 1023 10 16 0.00 0.00
9:35 pm 21:35 Clear 61 16 44 6.5 53 53 ENE 8 13 30.21 1023 10 16 0.00 0.00
9:55 pm 21:55 Clear 58 14.6 44 6.7 59 59 ENE 7 11 30.23 1024 10 16 0.00 0.00
10:15 pm 22:15 Clear 56 13.5 44 6.9 64 64 ENE 9 15 30.24 1024 10 16 0.00 0.00
10:35 pm 22:35 Clear 57 13.9 44 6.7 62 62 ENE 8 13 30.25 1024 10 16 0.00 0.00
10:55 pm 22:55 Clear 57 13.8 44 6.5 61 61 ENE 9 15 30.26 1025 10 16 0.00 0.00
11:15 pm 23:15 Clear 55 12.9 44 6.4 65 65 ENE 9 15 30.28 1025 10 16 0.00 0.00
11:35 pm 23:35 Clear 55 12.6 43 6.1 65 65 E 10 17 30.28 1025 10 16 0.00 0.00
11:55 pm 23:55 Clear 55 13 43 6 62 62 E 10 17 30.29 1026 10 16 0.00 0.00

Powered by AerisWeather